CDT,Max TemperatureF,Mean TemperatureF,Min TemperatureF,Max Dew PointF,MeanDew PointF,Min DewpointF,Max Humidity, Mean Humidity, Min Humidity, Max Sea Level PressureIn, Mean Sea Level PressureIn, Min Sea Level PressureIn, Max VisibilityMiles, Mean VisibilityMiles, Min VisibilityMiles, Max Wind SpeedMPH, Mean Wind SpeedMPH, Max Gust SpeedMPH,PrecipitationIn, CloudCover, Events, WindDirDegrees
2012-9-1,86,73,60,54,45,36,72,41,17,30.12,30.07,30.02,10,10,10,17,8,21,0.00,0,,82
2012-9-2,93,76,59,63,54,48,77,48,26,30.02,29.95,29.86,10,10,10,13,5,16,0.00,0,,142
2012-9-3,87,78,69,66,64,61,83,60,40,29.93,29.90,29.87,10,10,2,9,5,,0.00,1,Rain-Thunderstorm,197
2012-9-4,91,78,66,64,57,37,83,53,16,29.92,29.83,29.74,10,9,1,10,4,9,0.00,0,Thunderstorm,194
2012-9-5,82,68,55,57,48,39,82,50,21,29.93,29.84,29.71,10,10,4,34,10,50,0.36,1,Rain-Thunderstorm,313
2012-9-6,82,66,51,54,42,27,77,47,13,30.00,29.93,29.86,10,10,10,10,2,,0.00,1,Rain,142
2012-9-7,73,62,50,54,48,32,76,55,23,30.03,29.94,29.84,10,10,10,20,8,26,0.00,4,Thunderstorm,2
2012-9-8,82,63,44,45,37,23,82,48,11,30.04,29.96,29.80,10,10,10,28,8,39,0.00,1,,283
2012-9-9,75,60,44,50,42,34,87,55,23,30.19,30.13,30.04,10,10,7,8,3,,0.00,0,,6
2012-9-10,84,70,55,45,38,27,63,36,12,30.11,30.00,29.87,10,10,10,21,11,29,0.00,0,,169
2012-9-11,96,80,64,48,33,5,56,26,4,29.88,29.83,29.77,10,10,10,29,15,37,0.00,0,,178
2012-9-12,78,66,55,52,47,39,82,59,24,30.27,30.12,29.88,10,10,5,12,6,18,0.13,3,Rain,324
2012-9-13,75,64,53,50,37,7,82,48,7,30.36,30.30,30.27,10,10,7,12,4,18,0.00,1,,215
2012-9-14,78,62,46,46,33,9,82,40,7,30.32,30.28,30.25,10,10,10,8,4,,0.00,1,,113
2012-9-15,84,70,57,43,29,9,59,29,6,30.24,30.13,30.02,10,10,10,22,10,31,0.00,0,,185
2012-9-16,84,72,60,52,45,37,64,43,20,30.02,29.94,29.87,10,10,7,16,9,22,0.00,0,,215
2012-9-17,66,56,46,50,38,23,82,51,22,29.99,29.96,29.91,10,10,10,20,9,24,0.10,4,Rain-Thunderstorm,331
2012-9-18,62,48,35,39,28,16,87,49,16,30.04,29.99,29.90,10,10,7,16,3,20,0.00,2,,276
2012-9-19,78,63,46,37,28,12,71,30,9,29.90,29.78,29.66,10,10,10,26,13,36,0.00,2,,229
2012-9-20,68,54,41,37,26,12,70,38,12,29.94,29.90,29.87,10,10,10,25,8,32,0.00,1,,259
2012-9-21,64,55,46,45,35,28,76,46,27,29.88,29.84,29.80,10,10,10,24,7,36,0.01,4,Rain,272
2012-9-22,60,48,35,36,26,16,65,43,19,30.24,30.11,29.87,10,10,10,22,14,32,0.00,4,,317
2012-9-23,62,45,28,30,21,9,80,48,13,30.31,30.25,30.18,10,10,10,18,3,23,0.00,0,,305
2012-9-24,82,60,37,34,20,5,60,26,5,30.17,29.94,29.77,10,9,3,23,8,33,0.00,0,,212
2012-9-25,73,56,37,37,29,16,76,43,11,29.95,29.86,29.78,10,10,1,13,3,9,0.00,0,,339
2012-9-26,69,51,33,36,27,18,81,45,14,30.20,30.07,29.93,10,10,3,12,2,,0.00,0,,7
2012-9-27,71,53,35,39,30,23,75,45,16,30.26,30.20,30.16,10,10,3,7,1,,0.00,0,,157
2012-9-28,78,60,41,39,27,-2,76,39,4,30.21,30.17,30.11,10,10,2,7,1,,0.00,0,,239
2012-9-29,84,67,50,39,26,5,62,32,5,30.14,30.08,30.01,10,9,4,14,3,18,0.00,0,,308
2012-9-30,80,62,44,43,28,10,82,38,7,30.03,29.96,29.90,10,8,2,8,2,,0.00,0,,96